Regional Weather Roundup
Issued by NWS Newport/Morehead, NC

Home | Current Version | Previous Version | Text Only | Print | Product List | Glossary On
Versions: 1 2 3 4 5 6 7 8 9 10 11 12 13 14 15 16 17 18 19 20 21 22 23 24 25 26 27 28 29 30 31 32 33 34 35 36 37 38 39 40 41 42 43 44 45 46 47 48 49 50
000
ASUS42 KMHX 161325
RWRMHX
WEATHER ROUNDUP FOR EASTERN NORTH CAROLINA
NATIONAL WEATHER SERVICE NEWPORT/MOREHEAD CITY NC
800 AM EST MON JAN 16 2017

NOTE: "FAIR" INDICATES FEW OR NO CLOUDS BELOW 12,000 FEET
WITH NO SIGNIFICANT WEATHER AND/OR OBSTRUCTIONS TO VISIBILITY

NCZ015>017-031-032-045>047-102-103-161400-
NORTH COAST

CITY           SKY/WX    TMP DP  RH WIND       PRES   REMARKS
EDENTON        CLOUDY    43  37  80 CALM      30.45R
ELIZABETH CITY CLOUDY    41  38  89 NE5       30.44S
KITTY HAWK     NOT AVBL
MANTEO         CLOUDY    44  41  90 NE9       30.42F

$$

NCZ045>047-081-094-103-104-161400-
CENTRAL COAST

CITY           SKY/WX    TMP DP  RH WIND       PRES   REMARKS
FRISCO         CLOUDY    49  43  80 NE7       30.41R

$$

NCZ095-097-098-100-101-161400-
SOUTHERN COAST

CITY           SKY/WX    TMP DP  RH WIND       PRES   REMARKS
BEAUFORT       CLOUDY    47  40  76 NE10      30.40S
CEDAR ISLAND   NOT AVBL
JACKSONVILLE   CLOUDY    46  39  76 NE9       30.39S
PINEY ISLAND   CLOUDY   N/A N/A N/A N8        30.41R
WILMINGTON     CLOUDY    47  38  71 NE10      30.39R


$$

NCZ011>013-027>030-043-044-078>080-089-090>093-098-161400-
COASTAL PLAIN

CITY           SKY/WX    TMP DP  RH WIND       PRES   REMARKS
AHOSKIE          N/A     38  33  84 NE3       30.45S
CLINTON        CLOUDY    44  33  65 NE3       30.42R
ELIZABETHTOWN  CLOUDY    45  42  88 CALM      30.40R
GOLDSBORO      CLOUDY    43  35  73 NE6       30.40R
GREENVILLE     CLOUDY    43  34  70 E6        30.43S
HAVELOCK       CLOUDY    45  38  76 NE10      30.41S
KENANSVILLE    CLOUDY    43  36  75 CALM      30.41S
KINSTON        CLOUDY    45  36  70 NE8       30.43R
NEW BERN       CLOUDY    44  39  82 NE7       30.43R
RICHLANDS      CLOUDY    44  38  79 NE8       30.41R
ROCKY MOUNT    CLOUDY    42  27  55 NE6       30.43S
WASHINGTON     CLOUDY    42  35  75 NE5       30.44R
WHITEVILLE     CLOUDY    48  44  86 NE6       30.38R

$$

AMZ130-135-150-152-154-156-158-170-250-252-270-ANZ085-086-088-633-658-670-161400-
MARINE OBSERVATIONS

STATION/POSITION TIME  TEMP    WIND        PRES    WAVE   SWELL
                       AIR SEA DIR/SP/G            HT/PER HT/PER
                 (UTC) (F)     (DEG/KT/KT) (MB)    (FT/S) (FT/S)
CHESAPEAKE LIGHT NOT AVBL
64 E VA BEACH    1250   49 57   20/ 12/ 14 1030.0    3/ 8   3/ 8
DUCK             1300   44 44   30/ 12/ 12 1029.7
2 E DUCK         1300      45                N/A     3/ 6   2/11
OREGON INLET     1248   45 49  360/  9/ 13 1030.0
13E OREGON INLT  NOT AVBL
HATTERAS CG      1300   47 54   20/ 11/ 14 1029.2
DIAMOND BUOY     1250   57 74   20/ 17/ 21 1028.8    5/ 6   2/ 9
CAPE LOOKOUT     1300   48      20/ 13/ 16 1028.8
BEAUFORT LAB     1300   46 49   30/  8/ 11 1028.4
30 SE NEW RVR IN 1308   51 64   50/ 17/ 25 1028.2
30 SE NEW RVR IN 1313      64                N/A     5/ 5   2/11
27 SE WRIGHTSVLE 1308   56 70   70/ 17/ 23 1027.7
5 SE WRIGHTSVLE  1308   49      50/ 16/ 27 1028.5
225 S CAPE HAT   1250   69 71   90/  4/  4 1027.0    4/ 7   3/ 7
41 SE CHARLESTON 1250   70 71   50/  8/ 10 1025.6    3/ 8   3/ 8

$$




USA.gov is the U.S. government's official web portal to all federal, state and local government web resources and services.